GW0699 Weather Reports


time (UTC)temp
F
wind
direction
speed
knots
gust
knots
rain 1hr
in
rain 24hr
in
rain mn
in
humidity
%
barometer
mb
20260506184501 56 311 2.6 0.0 0.00 0.00 0.00 81 1019.9
20260506183017 55 319 2.6 0.0 0.00 0.00 0.00 83 1020.0
20260506181613 55 271 2.6 0.0 0.00 0.00 0.00 83 1020.0
20260506180018 54 5 3.5 0.0 0.00 0.00 0.00 83 1019.9
20260506174534 55 331 1.7 0.0 0.00 0.00 0.00 82 1019.6
20260506173056 55 22 0.9 0.0 0.00 0.00 0.00 83 1019.5
20260506171603 54 44 0.9 0.0 0.00 0.00 0.00 83 1019.5
20260506170017 54 303 0.0 0.0 0.00 0.00 0.00 84 1019.3
20260506164536 54 344 0.9 0.0 0.00 0.00 0.00 83 1019.5
20260506163051 53 333 1.7 0.0 0.00 0.00 0.00 83 1019.5
20260506161606 53 30 0.9 0.0 0.00 0.00 0.00 83 1019.2
20260506160038 53 308 1.7 0.0 0.00 0.00 0.00 84 1019.3
20260506154605 53 19 2.6 0.0 0.00 0.00 0.00 84 1019.2
20260506153043 53 270 0.9 0.0 0.00 0.00 0.00 84 1019.0
20260506151517 53 300 0.9 0.0 0.00 0.00 0.00 85 1018.5
20260506150033 53 5 0.0 0.0 0.00 0.00 0.00 84 1018.5
20260506144553 52 5 1.7 0.0 0.00 0.00 0.00 86 1019.0
20260506143103 52 360 1.7 0.0 0.00 0.00 0.00 87 1019.0
20260506141540 51 360 1.7 0.0 0.00 0.00 0.00 87 1019.0
20260506134536 51 321 1.7 0.0 0.00 0.00 0.00 88 1018.4
20260506133053 51 5 0.9 0.0 0.00 0.00 0.00 88 1018.4
20260506131606 51 10 1.7 0.0 0.00 0.00 0.00 89 1018.3
20260506130039 51 340 0.9 0.0 0.00 0.00 0.00 89 1018.1
20260506124559 51 355 0.9 0.0 0.00 0.00 0.00 89 1017.9
20260506123012 51 306 1.7 0.0 0.00 0.00 0.00 89 1017.8
20260506121523 51 333 1.7 0.0 0.00 0.00 0.00 89 1017.7
20260506120106 51 348 1.7 0.0 0.00 0.00 0.00 89 1017.7
20260506114527 51 317 1.7 0.0 0.00 0.00 0.00 89 1017.6
20260506113037 52 346 2.6 0.0 0.00 0.00 0.00 89 1017.6
20260506111509 52 332 1.7 0.0 0.00 0.00 0.00 89 1017.4
20260506110045 52 9 2.6 0.0 0.00 0.00 0.00 89 1017.3
20260506104503 52 30 1.7 0.0 0.00 0.00 0.00 88 1017.1
20260506103032 52 355 2.6 0.0 0.00 0.00 0.00 88 1017.1
20260506101545 52 336 1.7 0.0 0.00 0.00 0.00 88 1017.0
20260506100034 53 355 2.6 0.0 0.00 0.00 0.00 88 1016.8
20260506094559 53 324 1.7 0.0 0.00 0.00 0.00 88 1016.7
20260506093006 53 322 2.6 0.0 0.00 0.00 0.00 88 1016.5
20260506091524 53 355 3.5 0.0 0.00 0.00 0.00 87 1016.4
20260506090044 53 23 2.6 0.0 0.00 0.00 0.00 87 1016.5
20260506084559 53 345 2.6 0.0 0.00 0.00 0.00 87 1016.4
20260506083038 53 10 2.6 0.0 0.00 0.00 0.00 87 1016.4
20260506081603 53 311 2.6 0.0 0.00 0.00 0.00 87 1016.3
20260506073046 53 307 1.7 0.0 0.00 0.00 0.00 87 1016.1
20260506071524 53 346 1.7 0.0 0.00 0.00 0.00 87 1015.9
20260506061529 54 15 2.6 0.0 0.00 0.00 0.00 86 1015.5
20260506044614 54 15 3.5 0.0 0.00 0.00 0.00 85 1015.2
20260506043017 54 9 3.5 0.0 0.00 0.00 0.00 84 1015.0
20260506041533 55 355 3.5 0.0 0.00 0.00 0.00 83 1014.7
20260506040011 55 46 2.6 0.0 0.00 0.00 0.00 82 1014.7
20260506034534 56 350 3.5 0.0 0.00 0.00 0.00 81 1014.3
20260506033055 57 355 2.6 0.0 0.00 0.00 0.00 80 1014.1
20260506031526 57 355 2.6 0.0 0.00 0.00 0.00 78 1014.0
20260506030041 58 308 2.6 0.0 0.00 0.00 0.00 77 1013.8
20260506024558 59 304 2.6 0.0 0.00 0.00 0.00 76 1013.6
20260506023101 60 337 4.3 0.0 0.00 0.00 0.00 75 1013.5
20260506021522 60 345 3.5 0.0 0.00 0.00 0.00 74 1013.6
20260506020105 61 313 3.5 0.0 0.00 0.00 0.00 73 1013.5
20260506014512 62 13 3.5 0.0 0.00 0.00 0.00 73 1013.5
20260506013022 62 325 2.6 0.0 0.00 0.00 0.00 73 1013.5
20260506011547 62 319 2.6 0.0 0.00 0.00 0.00 72 1013.5
20260506010014 63 9 2.6 0.0 0.00 0.00 0.00 70 1013.5
20260506004528 63 331 1.7 0.0 0.00 0.00 0.00 71 1013.6
20260506003038 63 288 2.6 0.0 0.00 0.00 0.00 70 1013.8
20260506001502 63 254 3.5 0.0 0.00 0.00 0.00 69 1013.9
20260506000045 63 350 3.5 0.0 0.00 0.00 0.00 68 1014.0
20260505234544 64 244 3.5 0.0 0.00 0.00 0.00 71 1014.0
20260505233004 63 326 2.6 0.0 0.00 0.00 0.00 70 1014.1
20260505231558 62 360 3.5 0.0 0.00 0.00 0.00 69 1014.3
20260505230043 61 342 3.5 0.0 0.00 0.00 0.00 73 1014.5
20260505224554 61 308 3.5 0.0 0.00 0.00 0.00 72 1014.6
20260505223012 61 288 3.5 0.0 0.00 0.00 0.00 73 1014.6
20260505221535 61 308 3.5 0.0 0.00 0.00 0.00 72 1014.6
20260505220046 61 321 2.6 0.0 0.00 0.00 0.00 71 1014.6
20260505214606 61 275 2.6 0.0 0.00 0.00 0.00 71 1014.7
20260505213012 61 298 2.6 0.0 0.00 0.00 0.00 73 1014.9
20260505211528 61 278 1.7 0.0 0.00 0.00 0.00 73 1015.1
20260505210045 60 310 2.6 0.0 0.00 0.00 0.00 71 1015.1
20260505204559 61 355 1.7 0.0 0.00 0.00 0.00 72 1015.2
20260505203018 60 298 1.7 0.0 0.00 0.00 0.00 74 1015.1
20260505201527 60 315 0.9 0.0 0.00 0.00 0.00 72 1015.1
20260505200046 59 327 1.7 0.0 0.00 0.00 0.00 74 1015.2
20260505194517 59 313 1.7 0.0 0.00 0.00 0.00 75 1015.2
20260505193037 58 323 1.7 0.0 0.00 0.00 0.00 76 1015.2
20260505191514 58 355 2.6 0.0 0.00 0.00 0.00 76 1015.2
20260505190040 58 5 2.6 0.0 0.00 0.00 0.00 76 1015.2